Location: Newark
(47.7394°N, 8.0008°E)
Time: 05:32:27
(UTC+00:00)

N. Korean satellite - Pass Details

Date: 21 December 2019
Orbit: 454 x 508 km, 97.2° (Epoch: 20 January)

Event Time Altitude Azimuth Distance (km) Brightness Sun altitude
Rises 04:59:54 0° 19° (NNE) 2,510 10.3 -21.3°
Reaches altitude 10° 05:02:03 10° 26° (NNE) 1,621 9.4 -21.0°
Maximum altitude 05:05:21 40° 98° (E) 687 7.8 -20.4°
Drops below altitude 10° 05:08:36 10° 170° (S) 1,592 9.5 -19.9°
Sets 05:10:41 0° 178° (S) 2,457 10.3 -19.6°
